[[{"header":{"parameterUnit":"m.s-1","parameterCategory":1,"la1":30.2991,"la2":30.254,"lo1":-89.0895,"lo2":-89.0444,"dy":0.0017,"dx":0.0017,"nx":28,"ny":28,"refTime":"2024-05-02T21:00:00:Z","depth":0,"parameterNumber":2,"parameterNumberName":"U-component_of_WINDS"},"data":[0,0,0,0,0,0,0,0,0,0,0,0,0,0,0,0,0,0,0,0,0,0,0,0,0,0,0,0,0,0,0,0,0,0,0,0,0,0,0,0,0,0,0,0,0,0,0,0,0,0,0,0,0,0,0,0,0,0,-0.8247,-0.8249,0,-0.8421,-0.8423,-0.8425,-0.8479,-0.8478,-0.8477,-0.8477,-0.8658,-0.8663,-0.8669,0,0,0,0,0,0,0,0,0,0,0,0,0,-0.7967,-0.7971,-0.8247,-0.8249,-0.8251,-0.8421,-0.8423,-0.8425,-0.8479,-0.8478,-0.8477,-0.8476,-0.8656,-0.8662,-0.8669,0,0,0,0,0,0,0,0,0,0,0,0,0,-0.8109,-0.7973,-0.8247,-0.8299,-0.8305,-0.842,-0.8423,-0.8426,-0.8479,-0.8478,-0.8477,-0.8476,-0.8654,-0.8662,-0.867,-0.8747,0,0,-0.8696,-0.8699,0,0,0,0,0,0,0,0,-0.8101,-0.8119,-0.8289,-0.8295,-0.8303,-0.8427,-0.8391,-0.8534,-0.848,-0.8413,-0.8477,-0.8475,-0.8582,-0.8596,-0.8632,-0.8755,-0.8763,-0.8696,-0.8701,-0.8705,-0.8707,0,0,0,0,0,0,0,-0.8091,-0.8112,-0.8316,-0.8291,-0.83,-0.8315,-0.8334,-0.8418,-0.8503,-0.8419,-0.8423,-0.8443,-0.8586,-0.8623,-0.8636,-0.8766,-0.8696,-0.8704,-0.8709,-0.8712,-0.8964,-0.8965,0,0,0,0,0,0,-0.8072,-0.8104,-0.8311,-0.8321,-0.8197,-0.8321,-0.8342,-0.8388,-0.8502,-0.8518,-0.8444,-0.8445,-0.861,-0.8626,-0.8643,-0.8741,-0.8705,-0.8713,-0.8718,-0.8962,-0.8964,-0.8966,0,0,0,0,0,0,-0.8066,-0.809,-0.8304,-0.8214,-0.8242,-0.8327,-0.8379,-0.8392,-0.843,-0.8521,-0.8536,-0.8467,-0.8609,-0.8631,-0.8721,-0.8748,-0.8717,-0.8724,-0.896,-0.8963,-0.8965,-0.8937,0,0,0,0,0,0,-0.8057,-0.8087,-0.8116,-0.8214,-0.8247,-0.8377,-0.838,-0.8397,-0.8444,-0.8447,-0.8546,-0.8561,-0.861,-0.8708,-0.8729,-0.8759,-0.8731,-0.8958,-0.8961,-0.8964,-0.8936,-0.8939,-0.8941,0,0,0,0,0,-0.8047,-0.8102,-0.8117,-0.8142,-0.8284,-0.8378,-0.8397,-0.8451,-0.8446,-0.8477,-0.8535,-0.8558,-0.8742,-0.8717,-0.8741,-0.8774,-0.8956,-0.896,-0.8964,-0.8935,-0.8938,-0.8941,0,0,0,0,0,0,-0.8006,-0.8115,-0.8134,-0.8222,-0.829,-0.8387,-0.8427,-0.8452,-0.8524,-0.8524,-0.8589,-0.8611,-0.8696,-0.8745,-0.8715,-0.8856,-0.885,-0.8859,-0.882,-0.8824,-0.8826,-0.8812,-0.8738,0,0,0,0,0,-0.8006,-0.8072,-0.8166,-0.8234,-0.8268,-0.8341,-0.8384,-0.842,-0.8494,-0.8524,-0.8589,-0.8661,-0.8735,-0.8782,-0.8856,-0.8944,-0.8967,-0.8979,-0.8981,-0.8983,-0.8989,-0.9041,-0.9047,-0.8978,-0.8978,-0.8978,0,0,-0.8009,-0.8078,-0.8115,-0.8228,-0.8285,-0.8353,-0.8365,-0.8437,-0.8488,-0.8535,-0.8623,-0.8674,-0.8759,-0.8848,-0.8891,-0.8891,-0.9014,-0.8987,-0.8988,-0.8994,-0.9045,-0.9052,-0.9058,-0.898,-0.898,-0.898,0,0,-0.8049,-0.8107,-0.8171,-0.8228,-0.8314,-0.8364,-0.8379,-0.8473,-0.8508,-0.8598,-0.8634,-0.8698,-0.8824,-0.8883,-0.893,-0.8994,-0.9019,-0.9017,-0.9028,-0.9077,-0.9083,-0.9088,-0.9111,-0.9119,-0.9023,-0.9023,-0.9023,0,-0.8041,-0.8144,-0.82,-0.827,-0.8319,-0.8364,-0.843,-0.8484,-0.859,-0.8623,-0.8622,-0.8782,-0.8842,-0.8947,-0.8963,-0.8999,-0.902,-0.9005,-0.9077,-0.9083,-0.9089,-0.9112,-0.912,-0.9022,-0.9022,-0.9022,-0.9022,0,-0.8131,-0.8202,-0.8244,-0.8344,-0.8398,-0.8465,-0.8533,-0.8582,-0.8614,-0.8663,-0.8755,-0.883,-0.8919,-0.8947,-0.8979,-0.9057,-0.9054,-0.9064,-0.906,-0.9093,-0.9116,-0.9125,-0.9021,-0.9021,-0.9021,-0.9022,0,0,-0.8147,-0.8279,-0.8294,-0.834,-0.844,-0.8497,-0.8568,-0.8654,-0.8694,-0.8767,-0.8829,-0.8935,-0.8946,-0.8999,-0.9038,-0.9082,-0.9129,-0.9087,-0.909,-0.9092,-0.922,-0.9211,-0.922,-0.9146,-0.9148,-0.915,-0.9213,0,-0.82,-0.8325,-0.8379,-0.8481,-0.8548,-0.8593,-0.8655,-0.8724,-0.8773,-0.8838,-0.8893,-0.8968,-0.8976,-0.9008,-0.9053,-0.9113,-0.9155,-0.911,-0.9205,-0.9208,-0.9181,-0.9232,-0.9223,-0.9279,-0.9222,-0.9224,-0.9225,0,-0.8276,-0.8348,-0.8456,-0.8549,-0.858,-0.8634,-0.8718,-0.878,-0.886,-0.8893,-0.8953,-0.899,-0.9068,-0.906,-0.9169,-0.9136,-0.9179,-0.9215,-0.9219,-0.9229,-0.9217,-0.9243,-0.9298,-0.9306,-0.924,-0.9238,-0.9237,0,-0.8277,-0.8402,-0.8483,-0.8521,-0.8632,-0.8669,-0.8717,-0.8796,-0.8845,-0.892,-0.8953,-0.9036,-0.9081,-0.9146,-0.9206,-0.9194,-0.9309,-0.9306,-0.934,-0.9338,-0.9361,-0.9358,-0.9422,-0.9389,-0.9389,-0.9389,-0.9389,0,-0.8329,-0.8393,-0.8484,-0.8534,-0.8608,-0.8671,-0.8743,-0.8795,-0.8865,-0.8927,-0.8972,-0.9029,-0.9105,-0.9173,-0.9221,-0.9304,-0.9325,-0.9354,-0.9366,-0.935,-0.9346,-0.9378,-0.9375,-0.9391,-0.9391,-0.939,-0.939,0,-0.8341,-0.8405,-0.8496,-0.8594,-0.862,-0.867,-0.8754,-0.8805,-0.8857,-0.8935,-0.8957,-0.9039,-0.9122,-0.9188,-0.9296,-0.9328,-0.9416,-0.9429,-0.9388,-0.9394,-0.9424,-0.942,-0.951,-0.9525,-0.9482,-0.9482,-0.9482,0,-0.837,-0.842,-0.8523,-0.8567,-0.8614,-0.8685,-0.8735,-0.88,-0.8851,-0.8947,-0.8987,-0.9072,-0.9143,-0.9273,-0.9343,-0.9427,-0.9443,-0.9469,-0.9455,-0.9438,-0.9443,-0.9439,-0.9445,-0.9469,-0.9469,-0.947,-0.947,0,-0.8413,-0.8443,-0.8513,-0.8594,-0.8653,-0.8721,-0.879,-0.8824,-0.8902,-0.8957,-0.9041,-0.9097,-0.9207,-0.9292,-0.9383,-0.9434,-0.9466,-0.9474,-0.9486,-0.9469,-0.9443,-0.9457,-0.9391,-0.9471,-0.9471,-0.9471,-0.9471,-0.9471,-0.8435,-0.8482,-0.8562,-0.8639,-0.8698,-0.8762,-0.8814,-0.8873,-0.8944,-0.9038,-0.9072,-0.9159,-0.924,-0.9365,-0.9418,-0.9488,-0.949,-0.9508,-0.9512,-0.9516,-0.9513,-0.9432,-0.9505,-0.9505,-0.9505,-0.9505,-0.9505,0,-0.848,-0.8534,-0.8604,-0.8699,-0.8761,-0.8784,-0.8862,-0.8912,-0.8987,-0.906,-0.9129,-0.9227,-0.931,-0.9387,-0.9474,-0.9516,-0.9532,-0.9536,-0.9534,-0.9545,-0.9506,-0.9486,-0.9521,-0.9521,-0.9521,-0.9521,-0.9521,-0.9521,-0.8511,-0.8592,-0.8631,-0.8743,-0.8798,-0.8882,-0.8924,-0.8984,-0.9042,-0.9149,-0.9217,-0.9267,-0.9342,-0.9436,-0.9513,-0.9534,-0.9564,-0.9564,-0.9589,-0.955,-0.9548,-0.9545,-0.9527,-0.957,-0.9571,-0.9623,-0.9623,-0.9623]},{"header":{"parameterUnit":"m.s-1","parameterCategory":1,"la1":30.2991,"la2":30.254,"lo1":-89.0895,"lo2":-89.0444,"dy":0.0017,"dx":0.0017,"nx":28,"ny":28,"refTime":"2024-05-02T21:00:00:Z","depth":0,"parameterNumber":3,"parameterNumberName":"V-component_of_WINDS"},"data":[0,0,0,0,0,0,0,0,0,0,0,0,0,0,0,0,0,0,0,0,0,0,0,0,0,0,0,0,0,0,0,0,0,0,0,0,0,0,0,0,0,0,0,0,0,0,0,0,0,0,0,0,0,0,0,0,0,0,1.441,1.4411,0,1.4467,1.4468,1.4469,1.4531,1.4532,1.4533,1.4533,1.4588,1.4589,1.4589,0,0,0,0,0,0,0,0,0,0,0,0,0,1.4353,1.4354,1.441,1.4411,1.4412,1.4467,1.4468,1.4469,1.4531,1.4532,1.4533,1.4534,1.4588,1.4589,1.4589,0,0,0,0,0,0,0,0,0,0,0,0,0,1.439,1.4354,1.441,1.4449,1.4454,1.4467,1.4468,1.4469,1.453,1.4532,1.4533,1.4534,1.4588,1.4588,1.4589,1.4568,0,0,1.4592,1.4593,0,0,0,0,0,0,0,0,1.4388,1.4392,1.4443,1.4447,1.4451,1.4493,1.4468,1.4502,1.453,1.4501,1.4533,1.4535,1.4555,1.4559,1.4566,1.457,1.4573,1.4592,1.4593,1.4593,1.4593,0,0,0,0,0,0,0,1.4385,1.439,1.4433,1.4444,1.4449,1.4463,1.447,1.4474,1.452,1.4504,1.4508,1.4514,1.4558,1.4565,1.4568,1.4573,1.4592,1.4593,1.4594,1.4594,1.4563,1.4562,0,0,0,0,0,0,1.4377,1.4388,1.4431,1.4435,1.4423,1.4463,1.4471,1.4478,1.452,1.4528,1.4513,1.4517,1.4563,1.4567,1.457,1.4548,1.4593,1.4594,1.4595,1.4564,1.4563,1.4561,0,0,0,0,0,0,1.4376,1.4381,1.4429,1.4412,1.442,1.4463,1.4471,1.4479,1.4487,1.4527,1.4535,1.4513,1.4564,1.4569,1.4568,1.4551,1.4594,1.4595,1.4566,1.4564,1.4562,1.4503,0,0,0,0,0,0,1.4374,1.438,1.4373,1.4412,1.442,1.4426,1.447,1.4479,1.4488,1.4494,1.4529,1.4536,1.4566,1.4567,1.4569,1.4553,1.4596,1.4568,1.4565,1.4563,1.4507,1.4499,1.4493,0,0,0,0,0,1.4372,1.4353,1.4372,1.4377,1.4412,1.4425,1.443,1.4466,1.4487,1.448,1.4506,1.4535,1.4552,1.4566,1.4569,1.4553,1.4569,1.4566,1.4563,1.451,1.4501,1.4493,0,0,0,0,0,0,1.4309,1.4359,1.438,1.4374,1.4395,1.4436,1.4428,1.4455,1.447,1.4474,1.4517,1.4524,1.4518,1.4536,1.455,1.4535,1.4565,1.4562,1.4523,1.4515,1.4508,1.4504,1.4597,0,0,0,0,0,1.4294,1.4302,1.4344,1.4334,1.4344,1.4384,1.4391,1.4417,1.444,1.4449,1.4475,1.4495,1.4506,1.4511,1.4523,1.451,1.4518,1.45,1.4493,1.4487,1.4484,1.4479,1.4472,1.4551,1.4551,1.4551,0,0,1.4264,1.4292,1.4294,1.4323,1.4342,1.4348,1.4391,1.4395,1.44,1.4449,1.4451,1.447,1.4496,1.4489,1.4487,1.4503,1.4465,1.4484,1.4478,1.4479,1.4475,1.4468,1.4461,1.4549,1.4549,1.455,0,0,1.4212,1.4234,1.4229,1.4248,1.4277,1.4304,1.4303,1.434,1.4355,1.4358,1.4395,1.4401,1.4417,1.4434,1.4445,1.4401,1.4428,1.4403,1.4366,1.4361,1.4354,1.4349,1.4333,1.4327,1.44,1.44,1.44,0,1.417,1.4182,1.4222,1.4224,1.4236,1.4282,1.4277,1.4293,1.4324,1.433,1.4348,1.4371,1.4392,1.4389,1.4379,1.4386,1.4385,1.4399,1.4352,1.4347,1.4343,1.4328,1.4322,1.4397,1.4397,1.4398,1.4398,0,1.4129,1.4136,1.4128,1.4159,1.4169,1.4167,1.4207,1.4212,1.4237,1.4262,1.4264,1.429,1.4308,1.431,1.4334,1.4311,1.432,1.4345,1.4376,1.4331,1.4318,1.4313,1.4392,1.4393,1.4394,1.4395,0,0,1.4038,1.4092,1.4088,1.4103,1.414,1.4145,1.4146,1.4165,1.4169,1.4189,1.419,1.4203,1.4226,1.4239,1.4265,1.426,1.4223,1.4285,1.4286,1.4272,1.42,1.4181,1.4174,1.4242,1.4241,1.424,1.4197,0,1.3992,1.3997,1.4034,1.4027,1.4034,1.4079,1.4079,1.4101,1.4124,1.4133,1.4158,1.4167,1.4197,1.4205,1.4202,1.4228,1.4209,1.4232,1.4242,1.4242,1.4234,1.4167,1.4147,1.4105,1.4193,1.4192,1.4191,0,1.394,1.3958,1.3952,1.399,1.3994,1.3994,1.4015,1.4023,1.4048,1.4066,1.408,1.411,1.4112,1.4142,1.4145,1.416,1.4167,1.418,1.4179,1.4181,1.4213,1.4167,1.4093,1.4086,1.4183,1.4184,1.4185,0,1.3874,1.3897,1.3897,1.3908,1.3952,1.395,1.3968,1.3996,1.4005,1.4023,1.4029,1.4046,1.4055,1.4068,1.4102,1.412,1.4101,1.4134,1.4115,1.4114,1.4108,1.4108,1.4034,1.4113,1.4113,1.4113,1.4113,0,1.3819,1.3813,1.3868,1.3868,1.3863,1.3905,1.3899,1.3922,1.3946,1.395,1.399,1.3993,1.4038,1.4046,1.4072,1.4071,1.4075,1.4088,1.4095,1.4084,1.4083,1.4089,1.4092,1.4112,1.4112,1.4112,1.4112,0,1.3744,1.378,1.3783,1.3825,1.3835,1.383,1.3865,1.3866,1.3893,1.3898,1.3901,1.3942,1.3953,1.3989,1.4009,1.4027,1.4017,1.4031,1.4009,1.4013,1.3992,1.3994,1.392,1.3912,1.3995,1.3995,1.3994,0,1.3706,1.3703,1.3745,1.3752,1.3768,1.3778,1.3788,1.3829,1.3838,1.3868,1.3865,1.388,1.3894,1.3911,1.3941,1.3957,1.3971,1.3944,1.3973,1.3963,1.397,1.397,1.397,1.3937,1.3936,1.3935,1.3934,0,1.3635,1.3654,1.3667,1.3688,1.3699,1.3716,1.3736,1.3739,1.3785,1.3793,1.3806,1.3817,1.3838,1.3852,1.3873,1.3891,1.392,1.3925,1.3922,1.391,1.3898,1.3904,1.3991,1.3926,1.3927,1.3928,1.3928,1.3929,1.3578,1.3578,1.3607,1.3621,1.3641,1.3658,1.3662,1.3689,1.3701,1.3723,1.3746,1.3756,1.3782,1.3814,1.3829,1.3838,1.3853,1.3848,1.3847,1.3845,1.3839,1.3897,1.3841,1.3842,1.3842,1.3842,1.3842,0,1.3509,1.353,1.3543,1.357,1.3581,1.3609,1.3632,1.3639,1.3648,1.3671,1.3685,1.37,1.3714,1.3746,1.3763,1.3764,1.3778,1.3767,1.3767,1.3771,1.3825,1.3826,1.3755,1.3755,1.3755,1.3755,1.3756,1.3756,1.3474,1.3476,1.3498,1.3509,1.3531,1.3542,1.3553,1.3569,1.3588,1.3603,1.3616,1.3637,1.3664,1.3683,1.3697,1.3707,1.3711,1.3696,1.3709,1.3758,1.3767,1.3775,1.3776,1.3696,1.3696,1.3654,1.3654,1.3654]}]]